Regional Weather Roundup
Issued by NWS

Home | Current Version | Previous Version | Graphics & Text | Print | Product List | Glossary On
Versions: 1 2 3 4 5 6 7 8 9 10 11 12 13 14 15 16 17 18 19 20 21 22 23 24 25 26 27 28 29 30 31 32 33 34 35 36 37 38 39 40 41 42 43 44 45 46 47 48 49 50
000
ASUS43 KOAX 281910
RWRNE

WEATHER ROUNDUP FOR NEBRASKA
NATIONAL WEATHER SERVICE OMAHA NE
200 PM CDT THU AUG 28 2014

NOTES: SATELLITE DATA IS BEING USED TO AUGMENT CLOUD COVER ABOVE
       12000 FEET.
       "FAIR" INDICATES FEW OR NO CLOUDS BELOW 12,000 FEET WITH NO
       SIGNIFICANT WEATHER AND/OR OBSTRUCTIONS TO VISIBILITY.

  * THESE STATIONS DO NOT REPORT WEATHER SUCH AS RAIN...SNOW OR FOG.

NEZ001>004-019>022-054>056-282000-
NEBRASKA PANHANDLE

CITY           SKY/WX    TMP DP  RH WIND       PRES   REMARKS
SCOTTSBLUFF    LGT RAIN  61  61 100 W13       30.07R
ALLIANCE       TSTM      62  60  93 NW10      30.06R FOG
CHADRON        LGT RAIN  71  63  75 W9        30.02F
KIMBALL        LGT RAIN  58  57  96 NW13G18   30.10F
SIDNEY         CLOUDY    68  57  68 NW20      30.07S
$$

NEZ057>060-069>072-079>082-282000-
SOUTHWEST NEBRASKA

CITY           SKY/WX    TMP DP  RH WIND       PRES   REMARKS
NORTH PLATTE   SUNNY     79  64  60 W6        29.92F
IMPERIAL       MOSUNNY   76  61  59 NW10      29.97F
LEXINGTON      MOSUNNY   78  67  69 CALM      29.91S
MCCOOK         PTSUNNY   80  59  48 W8        29.92F
OGALLALA       PTSUNNY   74  62  64 W7        29.96F
$$

NEZ005>010-023>029-035>040-094-282000-
NORTH CENTRAL NEBRASKA

CITY           SKY/WX    TMP DP  RH WIND       PRES   REMARKS
VALENTINE      PTSUNNY   73  67  81 NW10      29.91F
AINSWORTH      MOSUNNY   76  64  65 SW3       29.90S
BROKEN BOW     PTSUNNY   80  65  59 SE5       29.89F
O`NEILL        PTSUNNY   78  70  74 S9        29.88F
ORD            PTSUNNY   76  67  73 SE8       29.87F
THEDFORD       MOSUNNY   81  64  55 W5        29.91F
$$

NEZ041-046>049-061>064-073>077-083>087-282000-
SOUTH CENTRAL NEBRASKA

CITY           SKY/WX    TMP DP  RH WIND       PRES   REMARKS
GRAND ISLAND   CLOUDY    76  68  76 SW6       29.91F
AURORA         CLOUDY    74  71  87 W5        29.90F
HASTINGS       CLOUDY    72  64  76 W5        29.91F
HEBRON         CLOUDY    79  67  64 S13G21    29.91F
HOLDREGE       CLOUDY    74  66  75 CALM      29.91F
KEARNEY *      CLOUDY    72  66  83 SE8       29.91F
YORK           LGT RAIN  79 N/A N/A S13G20    29.90F
$$

NEZ011>018-030>034-042>045-282000-
NORTHEAST NEBRASKA

CITY           SKY/WX    TMP DP  RH WIND       PRES   REMARKS
NORFOLK        CLOUDY    78  70  76 S13       29.88F
ALBION         CLOUDY    75  69  79 S10       29.89F
BLAIR          CLOUDY    79  72  77 S6        29.91F
FREMONT        MOSUNNY   82  72  73 SE6       29.90F
TEKAMAH        CLOUDY    77  72  84 SE8       29.90F
WAYNE          CLOUDY    77  72  85 S13       29.89F
$$

NEZ050>053-065>068-078-088>093-282000-
SOUTHEAST NEBRASKA

CITY           SKY/WX    TMP DP  RH WIND       PRES   REMARKS
LINCOLN        CLOUDY    81  69  67 S12       29.90F
OMAHA EPPLEY   CLOUDY    79  69  71 S12       29.90F
BEATRICE       CLOUDY    80  70  72 S15G21    29.91F
FALLS CITY     CLOUDY    80  75  84 CALM      29.91F
NEBRASKA CITY  MOSUNNY   81  71  71 S13G18    29.92S
PLATTSMOUTH    CLOUDY    81  71  71 S12       29.91S
$$

NEZ044-045-051>053-067-282000-
OMAHA AREA

CITY           SKY/WX    TMP DP  RH WIND       PRES   REMARKS
OMAHA EPPLEY   CLOUDY    79  69  71 S12       29.90F
BLAIR          CLOUDY    79  72  77 S6        29.91F
FREMONT        MOSUNNY   82  72  73 SE6       29.90F
MILLARD        CLOUDY    79  72  78 SE6       29.90F
OFFUTT AFB     PTSUNNY   80  75  83 SE12      29.90F
PLATTSMOUTH    CLOUDY    81  71  71 S12       29.91S
WAHOO          MOCLDY    82  70  68 S9        29.89F
$$


USA.gov is the U.S. government's official web portal to all federal, state and local government web resources and services.